Location: Winthrop
(48.4780°N, 120.1850°W)
Time: 03:52:46
(UTC-08:00)

Vanguard 1 Rocket - Pass Details

Date: 01 December 2023
Orbit: 654 x 4218 km, 34.3° (Epoch: 24 February)

Event Time Altitude Azimuth Distance (km) Brightness Sun altitude
Rises 08:24:02 0° 254° (WSW) 6,824 11.5 6.0°
Reaches altitude 10° 08:29:47 10° 248° (WSW) 5,185 11.0 6.7°
Maximum altitude 08:41:05 34° 190° (S) 2,378 10.1 8.0°
Drops below altitude 10° 08:47:37 10° 128° (SE) 2,965 12.4 8.8°
Sets 08:49:59 0° 118° (ESE) 3,646 12.0 9.0°
